Simultaneous Nadir Overpasses (SNOs) Predictions

Prediction of SNOs between METOP-C and LANDSAT-8 Satellite Orbit:

Table of predicted SNOs for the next 14.0 days since TLE Epoch: 6/14/2025
Index Date (METOP-C) Time (METOP-C) Lat,Lon (METOP-C) SZA (METOP-C ) Date (LANDSAT-8) Time (LANDSAT-8) Lat,Lon (LANDSAT-8) SZA (LANDSAT-8 ) Distance(km) Time Diff (sec)
1 06/14/2025 15:50:28 81.08, -18.60 59.86 06/14/2025 15:51:40 81.08, -18.59 59.90 0.11 72
2 06/14/2025 16:41:07 -81.10, 149.30 120.07 06/14/2025 16:41:06 -81.10, 149.35 120.07 0.76 1
3 06/14/2025 17:31:05 81.31, -26.57 62.05 06/14/2025 17:29:52 81.75, -27.04 62.17 48.77 73
4 06/17/2025 11:24:50 81.08, 47.79 59.75 06/17/2025 11:25:56 81.09, 47.94 59.80 2.78 66
5 06/17/2025 12:15:29 -81.10,-144.27 120.18 06/17/2025 12:15:22 -81.11,-144.09 120.16 3.28 7
6 06/20/2025 06:59:12 81.09, 114.49 59.73 06/20/2025 07:00:13 81.08, 114.34 59.73 2.68 61
7 06/20/2025 07:49:51 -81.11, -77.54 120.19 06/20/2025 07:49:39 -81.11, -77.67 120.22 2.34 12
8 06/23/2025 02:33:34 81.10,-178.88 59.75 06/23/2025 02:34:29 81.09,-179.05 59.76 3.02 55
9 06/23/2025 03:24:13 -81.12, -10.86 120.16 06/23/2025 03:23:55 -81.12, -11.03 120.19 2.93 18
10 06/25/2025 22:07:57 81.09,-112.67 59.78 06/25/2025 22:08:45 81.10,-112.58 59.81 1.77 48



Historial Predications of SNOs between METOP-C and LANDSAT-8
